National Weather Service Hourly Weather Roundup
NOAA NWS Hourly Roundups by Site
NOAA NWS Hourly Roundups by Site
Regional Weather Roundup for Sacramento, CA

To Select Another Site Choose from List

Select Site:  

000
ASUS46 KLOX 071310
RWRCA

SOUTHERN CALIFORNIA WEATHER ROUNDUP
NATIONAL WEATHER SERVICE OXNARD CALIFORNIA
500 AM PST WED DEC 07 2022

NOTE: "FAIR" INDICATES FEW OR NO CLOUDS BELOW 12,000 FEET WITH NO
SIGNIFICANT WEATHER AND/OR OBSTRUCTIONS TO VISIBILITY.

  -  STATIONS PRECEEDED BY AN ASTERISK (*) ARE NOT NWS OR FAA
     STATIONS AND ARE NOT SUBJECT TO NWS AND FAA QUALITY CONTROL.

CAZ041-042-087-071400-
LA AND ORANGE COUNTY COASTAL AREAS


CITY           SKY/WX    TMP DP  RH WIND       PRES   REMARKS
L.A. DOWNTOWN  CLEAR     47  44  90 CALM      30.12S
L.A. AIRPORT   PTCLDY    48  44  86 CALM      30.12S
LONG BEACH     CLEAR     48  44  86 CALM      30.12R

CITY           SKY/WX    TMP DP  RH WIND       PRES   REMARKS
AVALON           N/A     45 N/A N/A MISG        N/A
FULLERTON      PTCLDY    46  43  89 CALM      30.11S
HAWTHORNE      CLEAR     50  44  80 CALM      30.12S
*LEO CARRILLO    N/A     50  45  82 N9          N/A
*LOS ALAMITOS  FAIR      45  44  96 CALM      30.09R
SANTA ANA      CLEAR     51  44  77 CALM      30.12R
STA MONICA APT CLEAR     47  44  90 NE3       30.12R
*STA MON PIER    N/A     50  46  85 E5        30.07S

$$

CAZ547-548-048-071400-
LA COUNTY VALLEYS AND INLAND EMPIRE


CITY           SKY/WX    TMP DP  RH WIND       PRES   REMARKS
BURBANK        CLEAR     43  39  86 CALM      30.11R
VAN NUYS       CLEAR     45  40  82 CALM      30.10S

CITY           SKY/WX    TMP DP  RH WIND       PRES   REMARKS
CORONA AIRPORT FOG       36  36 100 CALM      30.14R VSB 1/2
*CHATSWORTH      N/A     42  39  89 CALM      30.17S
CHINO          PTCLDY    40  38  93 N3        30.13R
*CLAREMONT       N/A     42  40  93 CALM        N/A
MARCH AFB      MOCLDY    44  44  99 CALM      30.11R
*NORTHRIDGE      N/A     41  37  87 CALM        N/A
ONTARIO        MOCLDY    45  42  89 CALM      30.11R
RIVERSIDE      PTCLDY    45  43  93 CALM      30.12R FOG
SAN BERNARDINO FAIR      45  32  60 CALM      30.12R
*SAN RAFAEL HI   N/A     47  44  88 CALM        N/A
*SAUGUS          N/A     41  41 100 N3          N/A
*WHITEMAN AP   NOT AVBL
*WHITTIER HILL   N/A     49  49 100 E2          N/A
*WOODLAND HILL   N/A     39  37  93 MISG        N/A

$$

CAZ054-055-071400-
LA AND SAN BERNARDINO COUNTY MOUNTAINS


CITY           SKY/WX    TMP DP  RH WIND       PRES   REMARKS
*ACTON           N/A     31  31  99 CALM        N/A
*BIG BEAR AIRP SUNNY     18  14  86 CALM      30.05S
*BIG PINES       N/A     23  19  84 CALM        N/A
SANDBERG       CLEAR     35  28  75 W7        30.06S WCI  29

$$

CAZ028-029-059-060-099-071400-
ANTELOPE VALLEY AND SURROUNDING AREAS


CITY           SKY/WX    TMP DP  RH WIND       PRES   REMARKS
LANCASTER      CLEAR     35  32  88 S6        30.09R WCI  30
PALMDALE       CLEAR     32  29  88 S6        30.08S WCI  26
*POPPY PARK      N/A     37  35  91 SW3         N/A

CITY           SKY/WX    TMP DP  RH WIND       PRES   REMARKS
29 PALMS       CLEAR     41  32  70 W8        30.14R
BARSTOW/DAGGET CLEAR     39  34  82 W8        30.08S WCI  33
BISHOP         CLOUDY    34  32  92 CALM      30.09R
CHINA LAKE     PTCLDY    31  23  72 CALM      30.07R
EDWARDS AFB    CLEAR     31  29  90 SW7       30.07R WCI  25
MOJAVE         PTCLDY    37  28  70 NW7       30.07S WCI  32
NEEDLES        MOCLDY    51  32  48 VRB5      30.04R
VICTORVILLE    PTCLDY    30  28  93 SE5       30.12R FOG     WCI  25

$$

CAZ039-040-071400-
VENTURA AND SANTA BARBARA COUNTY COAST


CITY           SKY/WX    TMP DP  RH WIND       PRES   REMARKS
CAMARILLO      CLEAR     42  41  96 CALM      30.11S
OXNARD AIRPORT CLEAR     46  43  89 NE6       30.12R
*POINT MUGU    CLEAR     44  43  96 N5        30.13R
SBA APT/GOLETA CLEAR     40  38  93 CALM      30.11R
*SANTA BARBARA   N/A     44  37  79 CALM      30.19R
*VENTURA         N/A     46  41  81 SW5         N/A

$$

CAZ044-045-071400-
VENTURA COUNTY VALLEYS


CITY           SKY/WX    TMP DP  RH WIND       PRES   REMARKS
*SIMI VALLEY     N/A     42  40  94 N1        30.10S
*N 1000 OAKS     N/A     45  44  95 E1        30.13R
*TO CIVIC ARTS   N/A     41  41 100 MISG        N/A
*WESTLAKE VILL   N/A     35  32  89 CALM      30.12R
*OJAI            N/A     35  33  94 CALM        N/A
*FILLMORE        N/A     38  36  93 CALM      30.18R

$$

CAZ053-071400-
VENTURA COUNTY MOUNTAINS


CITY           SKY/WX    TMP DP  RH WIND       PRES   REMARKS
*LOCKWOOD VLY    N/A     18  16  93 MISG        N/A
*ROSE VALLEY     N/A     25  23  93 MISG        N/A

$$

CAZ034-035-036-071400-
CENTRAL COAST AND SANTA YNEZ VALLEY


CITY           SKY/WX    TMP DP  RH WIND       PRES   REMARKS
SAN LUIS OBISP FOG       38  38 100 CALM      30.14R VSB 1/4
SANTA MARIA    CLEAR     38  38 100 E3        30.14R

CITY           SKY/WX    TMP DP  RH WIND       PRES   REMARKS
*CAL POLY SLO    N/A     41  41 100 NE7         N/A
*LOMPOC        MOCLDY    37  37 100 E6        30.15R FOG     WCI  32
*SANTA YNEZ    FOG       36  36 100 CALM      30.14R VSB 3/4

$$

CAZ037-038-051-071400-
SAN LUIS OBISPO COUNTY INTERIOR AND CUYAMA VALLEY


CITY           SKY/WX    TMP DP  RH WIND       PRES   REMARKS
*CUYAMA          N/A     37  35  91 CALM      30.09R
PASO ROBLES    FOG       40  38  93 NW3       30.14R VSB 1/4

$$

CAZ032-033-061-071400-
SOUTHERN DESERTS


CITY           SKY/WX    TMP DP  RH WIND       PRES   REMARKS
BLYTHE         CLOUDY    52  35  52 CALM      30.05R
IMPERIAL       PTCLDY    56  37  49 W8        30.05R
PALM SPRINGS   CLEAR     48  38  68 S6        30.06S
THERMAL        CLEAR     56  39  53 NW10      30.05R

$$

ELSEWHERE ACROSS THE WESTERN UNITED STATES AND MEXICO


CITY           SKY/WX    TMP DP  RH WIND       PRES   REMARKS
DEATH VALLEY,    N/A     47  32  56 CALM        N/A
DENVER, CO     PTCLDY    27  15  61 S13       30.09R WCI  16
GRAND CANYON,  FLURRIES  32  32 100 CALM      30.07S
HONOLULU, HI   MOCLDY    77  68  73 NE12      30.01F
KAHULUI, MAUI  CLEAR     75  64  69 E13G20    30.00F
LAKE TAHOE, CA MOCLDY     2  -2  83 S5        30.07S FOG     WCI  -8
LAS VEGAS, NV  PTCLDY    42  32  67 SW5       30.04R
MAMMOTH LAKES, CLOUDY    23  21  93 W5        30.05S WCI  17
MEXICO CITY, M CLEAR     48  32  53 E3        30.42R
PHOENIX, AZ    MOCLDY    54  51  90 E8        30.03R
PORTLAND, OR   CLOUDY    41  37  86 E3        30.19S
RENO, NV       CLEAR     23  16  74 W3        30.13R
SALT LAKE CITY CLOUDY    31  24  75 CALM      30.19R
SAN DIEGO, CA  PTCLDY    51  45  79 CALM      30.15R
SAN FRANCISCO, PTCLDY    43  41  93 S3        30.16R
SAN JOSE, CA   CLEAR     40  37  89 SE3       30.16R
SEATTLE, WA    CLOUDY    39  36  89 S5        30.15S
TIJUANA, MEX   PTCLDY    48  46  93 SE7       30.16R

$$

STATION/POSITION TIME  TEMP    WIND        PRES    VSBY  WAVE
                       AIR SEA DIR/SP/G                  HT/PER
                 (UTC) (F)     (DEG/KT/KT) (MB)    (MI)  (FT/S)
WEST SANTA BARBA 1250   55 60  330/  8/ 12 1019.5R         3/ 8
EAST SANTA BARBA 1250   56 60  290/ 10/ 14 1019.1R         3/ 8
SANTA MONICA BAY 1250   57     300/  6/ 10 1020.2R         2/14
SAN CLEMENTE BAS 1250   58 61  310/  8/ 12 1019.4R         3/10

 

View Past Reports for Sacramento, CA.

Products Courtesy of NOAA-NWS
NWS Information Parsing Script by Ken True at Saratoga Weather - Script by SE Lincoln Weather.

powered by Cumulus v1.9.3 (1059)
Ambient Weather VWS v14.00
Weather-Display (10.37S-(b58))
Virtual VP software
Top Website Map Copyright © 2007 - 2022 Foresthillweather.com Never base important decisions on this or any weather information obtained from the Internet